#timestamp,LO_Frequency,Hit,StdDev 
1512532815.1,286046998.8,N
1512532816.0,286046998.8,N
1512532835.8,286046998.3,N
1512532855.6,286047001.0,N
1512532875.5,286046998.0,N
1512532895.3,286046996.2,N
1512532915.2,286046995.4,N
1512532935.9,286046996.3,N
1512532955.7,286046994.9,N
1512532975.6,286046995.9,N
1512532995.4,286046998.0,N
1512533015.2,286046997.6,N
1512533035.1,286046998.8,N
1512533036.0,286046998.8,N
1512533055.8,286047001.0,N
1512533075.7,286046999.4,N
1512533095.5,286046998.3,N
1512533115.3,286047000.3,N
1512533135.2,286046997.9,N
1512533155.0,286046996.8,N
1512533155.9,286046996.8,N
1512533175.8,286046996.1,N
1512533195.6,286046994.8,N
1512533215.4,286046993.2,Y
1512533235.3,286046994.8,P
1512533255.1,286046996.4,N
1512533275.8,286046993.3,P
1512533295.7,286046997.8,N
1512533315.5,286046999.5,N
1512533335.4,286046999.2,N
1512533355.2,286046996.9,N
1512533375.0,286046995.5,N
1512533375.9,286046995.5,N
1512533395.8,286046998.0,N
1512533415.6,286046997.0,N
1512533435.5,286046998.3,N
1512533455.3,286046998.7,N
1512533475.1,286046998.1,N
1512533495.9,286046997.0,N
1512533515.7,286046999.0,N
1512533535.5,286047000.3,N
1512533555.4,286047000.2,N
1512533575.2,286047000.0,N
1512533595.1,286047002.2,N
1512533596.0,286047002.2,N
1512533615.8,286047005.7,N
1512533635.6,286047005.5,N
1512533655.5,286047004.9,N
1512533675.3,286047006.4,N
1512533695.1,286047002.9,N
1512533715.9,286047004.3,N
1512533735.7,286046999.8,N
1512533755.6,286046998.8,N
1512533775.4,286046999.2,N
1512533795.2,286047002.3,N
1512533815.1,286047002.3,N
1512533816.0,286047002.3,N
1512533835.8,286047001.2,N
1512533855.6,286046995.3,N
1512533875.5,286046997.9,N
1512533895.3,286046993.3,N
1512533915.2,286046992.5,N
1512533935.9,286046990.6,N
1512533955.7,286046993.4,N
1512533975.6,286046995.7,N
1512533995.4,286046993.4,N
1512534015.2,286046996.1,N
1512534035.1,286046993.6,N
1512534036.0,286046993.6,N
1512534055.8,286046994.0,N
1512534075.7,286046990.5,N
1512534095.5,286046992.2,N
1512534115.3,286046990.2,N
1512534135.2,286046992.3,N
1512534155.0,286046992.7,N
1512534155.9,286046992.7,N
1512534175.8,286046990.2,N
1512534195.6,286046993.0,N
1512534215.4,286046993.8,N
1512534235.3,286046997.2,N
1512534255.1,286046997.0,N
1512534275.8,286047001.1,N
1512534295.7,286047000.5,N
1512534315.5,286046997.4,N
1512534335.4,286046998.8,N
1512534355.2,286047001.1,N
1512534375.0,286046999.9,N
1512534375.9,286046999.9,N
1512534395.8,286047000.6,N
1512534415.6,286047002.7,N
1512534435.4,286047000.5,N
1512534455.3,286046999.9,N
1512534475.1,286047002.5,N
1512534495.9,286046999.8,N
1512534515.7,286047000.8,N
1512534535.5,286046997.3,N
1512534555.4,286046999.3,N
1512534575.2,286046996.9,N
1512534595.1,286047000.3,N
1512534596.0,286047000.3,N
1512534615.8,286047002.5,N
1512534635.6,286047000.5,N
1512534655.5,286047000.8,N
1512534675.3,286047001.0,N
1512534695.1,286046998.7,N
1512534715.9,286047001.6,N
1512534735.7,286047001.6,N
1512534755.6,286047001.9,N
1512534775.4,286047000.1,N
1512534795.2,286047004.0,N
1512534815.1,286047000.7,N
1512534816.0,286047000.7,N
1512534835.8,286046998.1,N
1512534855.6,286046998.4,N
1512534875.5,286046993.8,Y
1512534895.3,286046997.4,P
1512534915.2,286046998.9,N
1512534935.9,286046998.7,N
1512534955.7,286047001.1,N
1512534975.6,286047001.0,N
1512534995.4,286047002.0,N
1512535015.3,286047001.4,N
1512535035.1,286047004.8,Y
1512535036.0,286047004.8,P
1512535055.8,286047002.6,N
1512535075.7,286047002.8,N
1512535095.5,286047005.9,Y
1512535115.4,286047001.6,P
1512535135.2,286047000.5,N
1512535155.0,286047000.6,N
1512535155.9,286047000.6,N
1512535175.8,286047002.0,N
1512535195.6,286046999.4,N
1512535215.4,286046994.9,Y
1512535235.3,286046995.9,P
1512535255.1,286046997.7,N
1512535275.9,286046997.0,N
1512535295.7,286046999.6,N
1512535315.5,286046998.3,N
1512535335.4,286047002.4,N
1512535355.2,286046999.8,N
1512535375.1,286046997.9,N
1512535376.0,286046997.9,N
1512535395.8,286046993.5,Y
1512535415.6,286046996.2,P
1512535435.5,286046994.6,P
1512535455.3,286046994.7,P
1512535475.1,286046994.9,Y
1512535495.9,286047002.2,P
1512535515.7,286047005.9,N
1512535535.6,286047005.8,N
1512535555.4,286047004.3,N
1512535575.2,286047000.1,N
1512535595.1,286046999.9,N
1512535596.0,286046999.9,N
1512535615.8,286046999.7,N
1512535635.6,286047000.8,N
1512535655.5,286047001.2,N
1512535675.3,286046999.9,N
1512535695.2,286047002.5,N
1512535715.9,286047002.0,N
1512535735.7,286047002.5,N
1512535755.6,286047002.0,N
1512535775.4,286047001.4,N
1512535795.2,286046998.2,N
1512535815.1,286046998.2,N
1512535816.0,286046998.2,N
1512535835.8,286047001.0,N
1512535855.7,286047002.1,N
1512535875.5,286047003.2,N
1512535895.3,286047001.3,N
1512535915.2,286047003.9,N
1512535935.0,286047003.3,N
1512535935.9,286047003.3,N
1512535955.8,286047004.5,N
1512535975.6,286047005.8,N
1512535995.4,286047004.5,N
1512536015.3,286047001.3,N
1512536035.1,286047002.8,N
1512536036.0,286047002.8,N
1512536055.8,286047002.7,N
1512536075.7,286047002.6,N
1512536095.5,286047004.0,N
1512536115.3,286047000.4,N
1512536135.2,286046999.7,N
1512536155.0,286047002.3,N
1512536155.9,286047002.3,N
1512536175.8,286047006.0,Y
1512536195.6,286046999.8,P
1512536215.4,286047000.8,N
1512536235.3,286047002.7,N
1512536255.1,286046999.9,N
1512536275.9,286046998.5,N
1512536295.7,286046997.1,N
1512536315.5,286046997.9,N
1512536335.4,286046997.1,N
1512536355.2,286046996.9,N
1512536375.0,286046999.3,N
1512536376.0,286046999.3,N
1512536395.8,286046998.2,N
